Butte, MT

6:01 AM MDT on April 19, 2018 (GMT -0600)
Mooney

Weather History for KBTM - November, 2012

Change the Weather History Date:

Sunday, November 4, 2012

  Actual Average Record
Temperature  
Mean Temperature 47 °F 34 °F  
Max Temperature 53 °F 46 °F 66 °F (1980)
Min Temperature 40 °F 21 °F -11 °F (1973)
Degree Days  
Heating Degree Days 18 31  
Month to date heating degree days 95 122  
Since 1 July heating degree days 1281 1493  
Cooling Degree Days 0 0  
Month to date cooling degree days 0 0  
Year to date cooling degree days 121 81  
Moisture  
Dew Point 33 °F    
Average Humidity 58    
Maximum Humidity 70    
Minimum Humidity 46    
Precipitation  
Precipitation 0.00 in 0.02 in 0.55 in (1919)
Month to date precipitation T 0.08  
Year to date precipitation 7.79 11.74  
Snow  
Snow 0.00 in - - ()
Month to date snowfall 0.0  
Year to date snowfall 0.0  
Snow Depth 0.00 in    
Sea Level Pressure  
Sea Level Pressure 30.27 in    
Wind  
Wind Speed 4 mph (NW)    
Max Wind Speed 13 mph    
Max Gust Speed 16 mph    
Visibility 10 miles    
Events      
T = Trace of Precipitation, MM = Missing Value Source: NWS Daily Summary

Daily Weather History Graph

Daily Weather History Graph

Search for Another Location

Airport or City:

Astronomy

Nov. 04, 2012 Rise Set
Actual Time 7:15 AM MST 5:11 PM MST
Civil Twilight 6:44 AM MST 5:42 PM MST
Nautical Twilight 6:08 AM MST 6:17 PM MST
Astronomical Twilight 5:33 AM MST 6:52 PM MST
Moon 9:50 PM MST (11/4) 12:04 PM MST (11/4)
Length of Visible Light 10h 58m
Length of Day
9h 55m
Waning Gibbous, 71% of the Moon is Illuminated
Nov 4
Waning Gibbous
Nov 6
Last Quarter
Nov 13
New
Nov 20
First Quarter
Nov 28
Full

Hourly Weather History & Observations

Time (MST) Temp. Windchill Dew Point Humidity Pressure Visibility Wind Dir Wind Speed Gust Speed Precip Events Conditions
12:53 AM 48.0 °F - 30.9 °F 52% 30.12 in 10.0 mi West 5.8 mph - N/A   Clear
1:53 AM 42.1 °F - 30.9 °F 65% 30.15 in 10.0 mi Calm Calm - N/A   Mostly Cloudy
1:53 AM 45.0 °F - 32.0 °F 60% 30.16 in 10.0 mi Calm Calm - N/A   Overcast
2:53 AM 46.9 °F - 30.0 °F 52% 30.14 in 10.0 mi WSW 3.5 mph - N/A   Overcast
3:53 AM 46.0 °F 44.8 °F 30.9 °F 56% 30.16 in 10.0 mi North 3.5 mph - N/A   Overcast
4:53 AM 45.0 °F 42.6 °F 30.9 °F 58% 30.18 in 10.0 mi West 4.6 mph - N/A   Overcast
5:53 AM 45.0 °F - 30.9 °F 58% 30.20 in 10.0 mi Calm Calm - N/A   Overcast
6:53 AM 44.1 °F - 30.9 °F 60% 30.22 in 10.0 mi Calm Calm - N/A   Overcast
7:53 AM 43.0 °F - 32.0 °F 65% 30.27 in 10.0 mi Calm Calm - N/A   Overcast
8:53 AM 45.0 °F - 32.0 °F 60% 30.29 in 10.0 mi Calm Calm - N/A   Overcast
9:53 AM 48.0 °F - 33.1 °F 56% 30.28 in 10.0 mi NNE 5.8 mph - N/A   Overcast
10:53 AM 48.9 °F - 33.1 °F 54% 30.30 in 10.0 mi North 6.9 mph - N/A   Overcast
11:53 AM 50.0 °F - 33.1 °F 52% 30.30 in 10.0 mi WNW 4.6 mph - N/A   Overcast
12:53 PM 52.0 °F - 33.1 °F 49% 30.30 in 10.0 mi NW 9.2 mph - N/A   Overcast
1:53 PM 53.1 °F - 34.0 °F 48% 30.29 in 10.0 mi NNW 10.4 mph - N/A   Overcast
2:53 PM 52.0 °F - 34.0 °F 50% 30.28 in 10.0 mi NW 11.5 mph - N/A   Overcast
3:53 PM 52.0 °F - 34.0 °F 50% 30.30 in 10.0 mi NNW 4.6 mph - N/A   Overcast
4:53 PM 52.0 °F - 34.0 °F 50% 30.31 in 10.0 mi WNW 8.1 mph - N/A   Overcast
5:53 PM 51.1 °F - 34.0 °F 52% 30.33 in 10.0 mi WNW 6.9 mph 16.1 mph N/A   Overcast
6:53 PM 50.0 °F - 35.1 °F 57% 30.36 in 10.0 mi NW 4.6 mph - N/A   Overcast
7:53 PM 48.9 °F - 35.1 °F 59% 30.37 in 10.0 mi Calm Calm - N/A   Overcast
8:53 PM 46.9 °F - 35.1 °F 63% 30.36 in 10.0 mi Calm Calm - N/A   Mostly Cloudy
9:53 PM 44.6 °F 42.2 °F 35.6 °F 71% 30.39 in 10.0 mi North 4.6 mph - N/A   Partly Cloudy
10:53 PM 45.0 °F - 35.1 °F 68% 30.34 in 10.0 mi Calm Calm - N/A   Clear